Location: Lane
(33.5226°N, 79.8788°W)
Time: 06:05:04
(UTC+00:00)

Vanguard 2 - Pass Details

Date: 09 October 2022
Orbit: 553 x 2933 km, 32.9° (Epoch: 26 November)

Event Time Altitude Azimuth Distance (km) Brightness Sun altitude
Rises 00:46:29 0° 276° (W) 6,490 13.7 -24.1°
Reaches altitude 10° 00:52:45 10° 260° (W) 5,678 12.8 -25.4°
Maximum altitude 01:02:56 18° 225° (SW) 5,039 12.0 -27.5°
Drops below altitude 10° 01:12:54 10° 188° (S) 5,475 11.8 -29.5°
Sets 01:18:55 0° 172° (S) 6,175 11.9 -30.7°
